Voltar ao catálogo

STARLINK-30555

AtivoComunicaçõesVLEO
NORAD 58040·PAYLOAD·🇺🇸 United States

Lançado Oct 9, 2023 de Vandenberg Space Force Base

Loading…

Próximas Passagens (próximas 24 horas)

TLE

AtualizadoSource: CelesTrak SupGP

Época: Sep 15, 2026, 02:13 UTC

1 58040C 23156N   26258.09284722  .00046784  00000+0  13824-2 0  2587
2 58040  53.1605   4.7434 0001181  83.7451 261.7889 15.34364780    13

Acompanhe STARLINK-30555 em tempo real com AllMySat

Download on the App Store